EN

Hourly Weather Shishma

Today, 19 October, Monday

Time Temperature Precipitation Wind Pressure Humidity
00:00 +8°C° 0 mm 4 mps 752 mmHg 67%
01:00 +8°C° 0 mm 4 mps 751 mmHg 77%
02:00 +8°C° 0 mm 4 mps 751 mmHg 72%
03:00 +8°C° 0 mm 4 mps 751 mmHg 68%
04:00 +9°C° 0 mm 3 mps 751 mmHg 56%
05:00 +9°C° 0 mm 3 mps 751 mmHg 49%
06:00 +8°C° 0 mm 3 mps 751 mmHg 42%
07:00 +8°C° 0 mm 3 mps 750 mmHg 35%
08:00 +10°C° 0 mm 4 mps 750 mmHg 32%
09:00 +12°C° 0 mm 4 mps 750 mmHg 28%
10:00 +14°C° 0 mm 5 mps 751 mmHg 25%
11:00 +16°C° 0 mm 5 mps 750 mmHg 23%
12:00 +17°C° 0 mm 5 mps 750 mmHg 21%
13:00 +20°C° 0 mm 5 mps 750 mmHg 20%
14:00 +19°C° 0 mm 5 mps 750 mmHg 20%
15:00 +19°C° 0 mm 4 mps 750 mmHg 21%
16:00 +19°C° 0 mm 3 mps 749 mmHg 22%
17:00 +17°C° 0 mm 3 mps 749 mmHg 24%
18:00 +16°C° 0 mm 2 mps 749 mmHg 26%
19:00 +14°C° 0 mm 2 mps 748 mmHg 28%
20:00 +14°C° 0 mm 2 mps 748 mmHg 29%
21:00 +13°C° 0 mm 2 mps 748 mmHg 30%
22:00 +13°C° 0 mm 2 mps 748 mmHg 30%
23:00 +12°C° 0 mm 2 mps 748 mmHg 31%

Tomorrow, 20 October, Tuesday

Time Temperature Precipitation Wind Pressure Humidity
00:00 +12°C° 0 mm 2 mps 747 mmHg 31%
01:00 +10°C° 0 mm 2 mps 747 mmHg 32%
02:00 +10°C° 0 mm 2 mps 747 mmHg 32%
03:00 +10°C° 0 mm 2 mps 746 mmHg 32%
04:00 +9°C° 0 mm 2 mps 746 mmHg 33%
05:00 +9°C° 0 mm 2 mps 746 mmHg 34%
06:00 +8°C° 0 mm 2 mps 746 mmHg 35%
07:00 +8°C° 0 mm 2 mps 745 mmHg 36%
08:00 +9°C° 0 mm 2 mps 745 mmHg 35%
09:00 +12°C° 0 mm 2 mps 745 mmHg 34%
10:00 +13°C° 0 mm 2 mps 745 mmHg 33%
11:00 +13°C° 0 mm 2 mps 745 mmHg 42%
12:00 +13°C° 0 mm 2 mps 745 mmHg 51%
13:00 +13°C° 0 mm 2 mps 745 mmHg 61%
14:00 +11°C° 0 mm 3 mps 745 mmHg 65%
15:00 +10°C° 0 mm 4 mps 745 mmHg 69%
16:00 +8°C° 0 mm 6 mps 746 mmHg 73%
17:00 +7°C° 0 mm 5 mps 746 mmHg 71%
18:00 +7°C° 0 mm 5 mps 746 mmHg 69%
19:00 +6°C° 0 mm 5 mps 746 mmHg 67%
20:00 +5°C° 0 mm 4 mps 746 mmHg 70%
21:00 +4°C° 0 mm 3 mps 746 mmHg 72%
22:00 +4°C° 0 mm 2 mps 747 mmHg 75%
23:00 +4°C° 0 mm 2 mps 747 mmHg 76%

Day after tomorrow, 21 October, Wednesday

Time Temperature Precipitation Wind Pressure Humidity
00:00 +4°C° 0 mm 2 mps 746 mmHg 77%
01:00 +4°C° 0 mm 2 mps 746 mmHg 77%
02:00 +4°C° 0 mm 2 mps 747 mmHg 78%
03:00 +3°C° 0 mm 2 mps 747 mmHg 78%
04:00 +3°C° 0 mm 2 mps 747 mmHg 79%
05:00 +3°C° 0 mm 2 mps 747 mmHg 79%
06:00 +2°C° 0 mm 2 mps 746 mmHg 80%
07:00 +2°C° 0 mm 2 mps 746 mmHg 81%
08:00 +2°C° 0 mm 3 mps 746 mmHg 69%
09:00 +4°C° 0 mm 4 mps 746 mmHg 58%
10:00 +6°C° 0 mm 5 mps 746 mmHg 47%
11:00 +5°C° 0 mm 6 mps 746 mmHg 45%
12:00 +7°C° 0 mm 6 mps 746 mmHg 43%
13:00 +7°C° 0 mm 6 mps 746 mmHg 41%
14:00 +7°C° 0.1 mm 6 mps 746 mmHg 44%
15:00 +5°C° 0.1 mm 6 mps 746 mmHg 47%
16:00 +5°C° 0.1 mm 6 mps 746 mmHg 49%
17:00 +5°C° 0 mm 5 mps 747 mmHg 53%
18:00 +3°C° 0 mm 5 mps 747 mmHg 58%
19:00 +3°C° 0 mm 4 mps 747 mmHg 62%
20:00 +1°C° 0 mm 4 mps 747 mmHg 63%
21:00 +1°C° 0 mm 4 mps 747 mmHg 63%
22:00 +1°C° 0 mm 4 mps 747 mmHg 63%
23:00 0°C° 0 mm 4 mps 747 mmHg 67%

22 October, Thursday

Time Temperature Precipitation Wind Pressure Humidity
00:00 0°C° 0 mm 4 mps 747 mmHg 70%
01:00 -1°C° 0 mm 4 mps 747 mmHg 73%
02:00 -1°C° 0 mm 4 mps 748 mmHg 77%
03:00 -2°C° 0 mm 5 mps 748 mmHg 81%
04:00 -2°C° 0 mm 5 mps 748 mmHg 85%
05:00 -3°C° 0 mm 4 mps 748 mmHg 86%
06:00 -3°C° 0 mm 4 mps 748 mmHg 87%
07:00 -4°C° 0 mm 4 mps 749 mmHg 88%
08:00 -3°C° 0 mm 4 mps 749 mmHg 79%
09:00 -2°C° 0 mm 4 mps 749 mmHg 70%
10:00 -1°C° 0 mm 5 mps 750 mmHg 60%
11:00 0°C° 0 mm 5 mps 750 mmHg 57%
12:00 0°C° 0 mm 5 mps 750 mmHg 55%
13:00 +1°C° 0 mm 5 mps 750 mmHg 52%
14:00 +1°C° 0 mm 5 mps 750 mmHg 52%
15:00 0°C° 0 mm 5 mps 750 mmHg 53%
16:00 0°C° 0 mm 5 mps 750 mmHg 54%
17:00 -1°C° 0 mm 4 mps 750 mmHg 58%
18:00 -1°C° 0 mm 4 mps 751 mmHg 63%
19:00 -1°C° 0 mm 3 mps 751 mmHg 67%
20:00 -2°C° 0 mm 3 mps 751 mmHg 70%
21:00 -2°C° 0 mm 2 mps 751 mmHg 74%
22:00 -3°C° 0 mm 2 mps 751 mmHg 77%
23:00 -3°C° 0 mm 2 mps 751 mmHg 78%

23 October, Friday

Time Temperature Precipitation Wind Pressure Humidity
00:00 -3°C° 0 mm 2 mps 751 mmHg 78%
01:00 -4°C° 0 mm 2 mps 752 mmHg 79%
02:00 -4°C° 0 mm 2 mps 752 mmHg 80%
03:00 -4°C° 0 mm 2 mps 752 mmHg 81%
04:00 -4°C° 0 mm 2 mps 752 mmHg 82%
05:00 -5°C° 0 mm 2 mps 752 mmHg 83%
06:00 -5°C° 0 mm 2 mps 752 mmHg 84%
07:00 -3°C° 0 mm 1 mps 752 mmHg 85%
08:00 -3°C° 0 mm 2 mps 752 mmHg 75%
09:00 -2°C° 0 mm 2 mps 752 mmHg 66%
10:00 +1°C° 0 mm 2 mps 752 mmHg 56%
11:00 +1°C° 0 mm 3 mps 752 mmHg 53%
12:00 +2°C° 0 mm 3 mps 752 mmHg 49%
13:00 +3°C° 0 mm 3 mps 752 mmHg 46%
14:00 +3°C° 0 mm 3 mps 752 mmHg 46%
15:00 +4°C° 0 mm 3 mps 752 mmHg 47%
16:00 +4°C° 0 mm 3 mps 751 mmHg 48%
17:00 +3°C° 0 mm 3 mps 751 mmHg 51%
18:00 +4°C° 0 mm 2 mps 751 mmHg 54%
19:00 +3°C° 0 mm 2 mps 751 mmHg 57%
20:00 +2°C° 0 mm 3 mps 751 mmHg 67%
21:00 +1°C° 0 mm 3 mps 751 mmHg 77%
22:00 0°C° 0 mm 4 mps 751 mmHg 87%
23:00 0°C° 0.1 mm 4 mps 750 mmHg 89%

24 October, Saturday

Time Temperature Precipitation Wind Pressure Humidity
00:00 +2°C° 0.1 mm 3 mps 750 mmHg 91%
01:00 +2°C° 0.1 mm 3 mps 750 mmHg 93%
02:00 +2°C° 0.1 mm 3 mps 750 mmHg 92%
03:00 +3°C° 0.1 mm 3 mps 749 mmHg 92%
04:00 +3°C° 0.1 mm 3 mps 749 mmHg 91%
05:00 +3°C° 0 mm 3 mps 748 mmHg 92%
06:00 +3°C° 0 mm 3 mps 748 mmHg 92%
07:00 +3°C° 0 mm 3 mps 748 mmHg 92%
08:00 +4°C° 0.1 mm 4 mps 747 mmHg 90%
09:00 +5°C° 0.1 mm 5 mps 746 mmHg 87%
10:00 +6°C° 0.1 mm 5 mps 746 mmHg 85%
11:00 +5°C° 1.7 mm 6 mps 745 mmHg 87%
12:00 +6°C° 1.7 mm 7 mps 745 mmHg 89%
13:00 +6°C° 1.7 mm 7 mps 744 mmHg 91%
14:00 +6°C° 1.3 mm 7 mps 743 mmHg 91%
15:00 +8°C° 1.3 mm 7 mps 743 mmHg 90%
16:00 +7°C° 1.3 mm 8 mps 742 mmHg 89%
17:00 +8°C° 0.7 mm 7 mps 742 mmHg 91%
18:00 +9°C° 0.7 mm 7 mps 743 mmHg 92%
19:00 +9°C° 0.7 mm 6 mps 743 mmHg 94%
20:00 +9°C° 0.3 mm 6 mps 743 mmHg 93%
21:00 +9°C° 0.3 mm 6 mps 743 mmHg 93%
22:00 +9°C° 0.3 mm 6 mps 743 mmHg 92%
23:00 +9°C° 0 mm 6 mps 742 mmHg 92%

25 October, Sunday

Time Temperature Precipitation Wind Pressure Humidity
00:00 +9°C° 0 mm 5 mps 742 mmHg 93%
01:00 +9°C° 0 mm 5 mps 742 mmHg 93%
02:00 +10°C° 0.1 mm 6 mps 742 mmHg 92%
03:00 +10°C° 0.1 mm 6 mps 742 mmHg 92%
04:00 +10°C° 0.1 mm 6 mps 742 mmHg 91%
05:00 +9°C° 0 mm 5 mps 742 mmHg 92%
06:00 +10°C° 0 mm 4 mps 742 mmHg 94%
07:00 +8°C° 0 mm 4 mps 743 mmHg 95%
08:00 +10°C° 0 mm 4 mps 743 mmHg 89%
09:00 +10°C° 0 mm 4 mps 743 mmHg 84%
10:00 +10°C° 0 mm 4 mps 743 mmHg 78%
11:00 +11°C° 0 mm 4 mps 743 mmHg 71%
12:00 +11°C° 0 mm 4 mps 744 mmHg 65%
13:00 +12°C° 0 mm 4 mps 744 mmHg 58%
14:00 +12°C° 0 mm 3 mps 744 mmHg 57%
15:00 +11°C° 0 mm 3 mps 744 mmHg 57%
16:00 +11°C° 0 mm 3 mps 744 mmHg 56%
17:00 +10°C° 0 mm 2 mps 744 mmHg 58%
18:00 +9°C° 0 mm 2 mps 744 mmHg 60%
19:00 +9°C° 0 mm 2 mps 744 mmHg 62%
20:00 +8°C° 0 mm 2 mps 744 mmHg 62%
21:00 +8°C° 0 mm 2 mps 744 mmHg 62%
22:00 +9°C° 0 mm 1 mps 744 mmHg 63%
23:00 +8°C° 0 mm 1 mps 744 mmHg 63%
Show more

We Need Your Consent

Meteoprog and our Service Providers may store and access personal data such as cookies, device identifiers or other similar technologies on your device and process such data to personalise content and ads, as well as provide social media features and to analyse the traffic.

  • Store and/or access information on your device

    Cookies, device identifiers or other information can be stored or accessed on your device for the purposes indicated above.

  • Personalised ads and content, ad and content measurement, audience insights, and products development

    Ads and content can be personalised based on a profile. More data can be added to better personalise ads and content. Ad and content performance can be measured. Insights about the audience who saw the ads and content can be derived. Such data can be used to develop or improve user’s experience, systems and software.

By clicking ‘I Agree’ you will allow the use of indicated cookies, device identifiers, web beacons or other similar technologies. Your settings can be changed in the browser on your device.

For certain purposes, legitimate interests may be relied on, rather than consent. You can read more about this in our Privacy and Cookie Policy.